Regional Weather Roundup
Issued by NWS Albany, NY

Home | Current Version | Previous Version | Graphics & Text | Print | Product List | Glossary Off
Versions: 1 2 3 4 5 6 7 8 9 10 11 12 13 14 15 16 17 18 19 20 21 22 23 24 25 26 27 28 29 30 31 32 33 34 35 36 37 38 39 40 41 42 43 44 45 46 47 48 49 50

000
ASUS41 KALY 211210
RWRALY

NEW YORK STATE HOURLY WEATHER ROUNDUP
NATIONAL WEATHER SERVICE ALBANY NY
700 AM EST FRI NOV 21 2014

NOTE: "FAIR" INDICATES FEW OR NO CLOUDS BELOW 12,000 FEET WITH NO
SIGNIFICANT WEATHER AND/OR NO OBSTRUCTIONS TO VISIBILITY.

NYZ032-033-038>043-046>054-057>066-NYZ062>081-211300-
EAST


CITY           SKY/WX    TMP DP  RH WIND       PRES   REMARKS
ALBANY         PTCLDY    21  12  68 W8        30.12R WCI  11
GLENS FALLS    CLOUDY    22  15  75 S9        30.06R WCI  12
POUGHKEEPSIE   CLEAR     25  10  53 SW12      30.15R WCI  14
NEWBURGH       CLEAR     21  12  68 W6        30.14R WCI  14
MONTGOMERY     CLEAR     23   9  55 SW6       30.14R WCI  16
WHITE PLAINS   CLEAR     25   9  50 W8        30.14R WCI  16
ISLIP          PTCLDY    28  10  46 W13       30.14R WCI  17
NEW YORK CITY  PTCLDY    28  11  48 W15G21    30.20R WCI  16
CENTRAL PARK   CLEAR     28   9  44 VRB7G17   30.21R WCI  21
$$

NYZ005>009-017-018-044>046-055-056-211300-
CENTRAL


CITY           SKY/WX    TMP DP  RH WIND       PRES   REMARKS
FULTON         CLOUDY    23  17  78 W10       30.13R WCI  12
SYRACUSE       LGT SNOW  22  15  75 W20       30.14R WCI   7
ROME           LGT SNOW  21  18  88 W10       30.14R FOG     WCI  10
ELMIRA         PTCLDY    20  10  65 W8G18     30.18R WCI  10
BINGHAMTON     CLEAR     16  11  80 W12       30.08R WCI   3
MONTICELLO     CLEAR     18  12  79 W9        30.09R WCI   6
$$

NYZ026>034-041>043-211300-
NORTH


CITY           SKY/WX    TMP DP  RH WIND       PRES   REMARKS
WATERTOWN      PTCLDY    18  11  74 NW5       30.15R WCI  11
FORT DRUM      NOT AVBL
MASSENA        CLEAR     19  13  77 W10       30.12R WCI   7
SARANAC LAKE   LGT SNOW  16  11  80 W9        29.95R WCI   4
PLATTSBURGH    CLOUDY    19  15  84 CALM      30.05R
$$

NYZ001>004-010>016-019>021-211300-
WEST


CITY           SKY/WX    TMP DP  RH WIND       PRES   REMARKS
NIAGARA FALLS  FLURRIES  19  14  81 W12       30.23R WCI   7
BUFFALO        FLURRIES  19  12  74 W10       30.22R WCI   7
DUNKIRK        FLURRIES  25  15  66 W15G25    30.25R WCI  13
JAMESTOWN      CLOUDY    18  10  73 W13       30.18R WCI   4
WELLSVILLE     CLEAR     14   8  77 W13G22    30.13R WCI   0
ROCHESTER      MOCLDY    20  15  81 W12       30.20R WCI   8
PENN YAN       FLURRIES  21  14  74 W14       30.15R WCI   8
$$

             KEY
       WCI = WIND CHILL INDEX
       VSB = VISIBILITY
       HX  = HEAT INDEX
$$


USA.gov is the U.S. government's official web portal to all federal, state and local government web resources and services.